SCP
0 0 0 0 0 0 0 0 0 -0 0 0 0 0 0 0 0 0 0 -0 0 0 0 0 0 0 0 0 0 0 0 0 0 0 0 0 0 0 0 0 0 0 0
0 0 0 0 0 0 0 0 0 -0 0 0 0 0 0 0 0 0 0 0 0 0 0 0 0 0 0 0 0 0 0 0 0 0 0 0 0 0 0 0 0 0 0
0 0 0 0 0 0 0 0 0 -0 0 0 0 0 0 0 0 0 0 0 0 0 0 0 0 0 0 0 0 0 0 0 0 0 0 0 0 0 0 0 0 0 0
0 0 0 0 0 0 0 0 0 -0 0 0 0 0 0 0 0 0 0 0 0 0 0 0 0 0 0 0 0 0 0 0 0 0 0 0 0 0 0 0 0 0 0
0 0 0 0 0 0 0 0 0 0 0 0 0 0 0 0 0 0 0 0 0 0 0 0 0 0 0 0 0 0 0 0 0 0 0 0 0 0 0 0 0 0 0
0 0 0 0 0 0 0 0 0 0 0 0 -0 0 0 0 0 0 0 0 0 0 0 0 0 0 0 0 0 0 0 0 0 0 0 0 0 0 0 0 0 0 0
0 0 0 0 0 0 0 0 0 0 0 0 0 0 0 0 0 0 0 0 0 0 0 0 0 0 0 0 0 0 0 0 0 0 0 0 0 0 0 0 0 0 0
0 0 0 0 0 0 0 0 0 0 0 0 0 0 0 0 0 0 0 0 0 0 0 0 0 0 0 0 0 0 0 0 0 0 0 0 0 0 0 0 0 0 0
0 0 0 0 0 0 0 0 0 0 0 0 0 0 0 0 0 0 0 0 0 0 0 0 0 0 0 0 0 0 0 0 0 0 0 0 0 0 0 0 0 0 0
0 -0 0 0 0 0 0 0 0 0 0 0 0 0 0 0 0 0 0 0 0 -0 0 0 0 0 0 0 0 0 0 0 0 0 0 0 0 0 0 0 0 0 0
-0 -0 -0 0 0 0 0 0 0 0 0 0 0 0 0 0 0 0 0 0 0 0 0 0 0 0 0 0 0 0 0 0 0 0 0 0 0 0 0 0 0 0 0
-0 -0 0 0 0 0 0 0 0 0 0 0 0 0 0 0 0 0 0 0 0 0 0 0 0 0 0 0 0 0 0 0 0 0 0 0 0 0 0 0 0 0 0
0 0 0 0 0 0 0 0 0 0 0 0 0 0 0 0 0 0 0 0 0 0 0 0 0 0 0 0 0 0 0 0 0 0 0 0 0 0 0 0 0 0 0
0 0 0 0 0 0 0 0 0 0 0 0 0 0 0 0 0 0 0 0 0 0 0 0 0 0 0 0 0 0 0 0 0 0 0 0 0 0 0 0 0 0 0
0 0 0 0 0 0 0 0 0 0 0 0 0 0 0 0 0 0 0 0 0 0 0 0 0 0 0 0 0 0 0 0 0 0 0 0 0 0 0 0 0 0 0
0 0 0 0 0 0 0 0 0 0 0 0 0 0 0 0 0 0 0 0 0 0 0 0 0 0 0 0 0 0 0 0 0 0 0 0 0 0 0 0 0 0 0
0 0 0 0 0 0 0 0 0 0 0 0 0 0 0 0 0 0 0 0 0 0 0 0 0 0 0 0 0 0 0 0 0 0 0 0 0 0 0 0 0 0 0
0 0 0 0 0 0 0 0 0 0 0 0 0 0 0 0 0 0 0 0 0 0 0 0 0 0 0 0 0 0 0 0 0 0 0 0 0 0 0 0 0 0 0
0 0 0 0 0 0 0 0 0 0 0 0 0 0 0 0 0 0 0 -0 0 0 0 0 0 0 0 0 0 0 0 0 0 0 0 0 0 0 0 0 0 0 -0
0 0 0 0 0 0 0 0 0 0 0 0 0 0 0 0 0 0 0 0 0 0 0 0 0 0 0 0 0 0 0 0 0 0 0 0 0 0 0 0 0 0 0
0 0 0 0 0 0 0 0 0 0 0 0 0 0 0 0 0 0 0 0 0 0 0 0 0 0 0 0 0 0 0 0 0 0 0 0 0 0 0 0 0 0 0
0 0 0 0 0 0 0 0 0 0 0 0 0 0 0 0 0 -0 0 0 0 0 0 0 0 0 0 0 0 0 0 0 0 0 0 0 0 0 0 0 0 0 0
0 0 0 0 0 0 0 0 0 0 0 0 0 0 0 0 -0 0 0 0 0 0 0 0 0 0 0 0 0 0 0 0 0 0 0 0 0 0 0 0 0 0 0
0 0 0 0 0 0 0 0 0 0 0 0 0 0 0 0 -0 -0 0 0 0 0 0 0 0 0 0 0 0 0 0 0 0 0 0 0 0 0 0 0 0 0 0
0 0 0 0 0 0 0 0 0 0 0 0 0 0 0 0 0 0 0 0 0 0 0 0 0 0 0 0 0 0 0 0 0 0 0 0 0 0 0 0 0 0 0
0 0 0 0 0 0 0 0 0 0 0 0 0 0 0 0 0 0 0 0 0 0 0 0 0 0 0 0 0 0 0 0 0 0 0 0 0 0 0 0 0 0 0
Wind_Speed_500mb
8 5 7 4 3 3 13 4 8 9 12 9 13 17 14 19 11 16 19 16 9 9 19 19 26 22 21 21 21 21 21 22 23 22 21 19 19 19 20 22 20 21 22
4 2 10 5 7 3 8 3 3 5 6 11 13 9 15 11 18 14 19 20 22 19 9 12 15 20 24 26 23 23 22 22 22 22 22 22 22 23 23 25 27 28 26
4 11 4 5 8 17 12 12 8 8 2 3 8 8 14 11 14 19 10 19 20 25 21 19 18 21 24 28 30 28 27 26 25 26 27 27 25 21 19 26 29 26 26
8 10 6 7 14 8 5 1 3 6 6 7 9 4 7 6 9 6 14 11 16 16 21 23 24 29 32 28 24 27 30 30 30 30 30 31 30 27 22 18 23 28 28
8 8 10 8 7 8 6 7 10 14 9 14 12 14 14 3 6 3 7 2 7 12 18 20 18 18 27 34 28 33 25 24 28 33 33 33 32 32 31 26 21 17 24
8 8 2 7 1 10 7 13 18 15 19 13 14 18 20 7 9 12 2 6 8 1 11 18 20 11 22 30 26 31 32 32 29 24 34 36 33 32 32 32 30 18 14
14 3 5 12 4 10 21 22 24 15 10 16 22 16 26 24 28 20 9 6 14 10 19 10 14 15 24 28 26 31 34 31 42 38 29 28 35 31 31 32 31 27 12
18 3 3 10 9 15 17 24 19 17 11 17 19 25 21 27 26 23 24 14 11 21 11 18 11 21 12 21 21 36 39 31 42 45 41 32 23 31 28 32 31 28 22
20 30 12 12 11 15 12 17 13 20 16 5 19 15 10 15 12 28 28 18 22 27 17 19 10 14 20 15 21 32 33 36 43 45 48 41 36 24 30 30 32 26 24
32 29 27 17 11 21 14 21 14 16 13 8 9 20 15 24 10 8 10 20 19 5 7 9 8 12 15 21 22 29 33 32 41 50 45 42 44 46 29 30 31 28 23
35 21 32 21 12 20 25 21 21 17 10 12 3 11 11 17 14 19 23 14 19 12 13 6 11 14 12 16 23 29 33 44 50 51 40 43 45 56 41 28 37 31 26
25 26 26 22 18 21 18 17 25 17 25 19 19 11 9 15 17 12 16 24 13 20 26 18 10 6 13 21 28 38 48 47 47 43 38 47 51 55 54 33 31 31 29
31 33 30 26 20 18 15 14 12 13 16 18 19 11 7 10 18 11 15 24 25 18 19 19 11 16 23 24 37 41 46 39 45 40 47 49 49 52 48 35 32 30 32
26 29 30 30 23 20 18 20 16 15 8 11 13 20 11 4 13 11 18 22 27 26 31 9 15 14 27 36 37 46 40 37 45 52 44 47 48 49 45 45 39 39 32
26 29 28 31 26 25 21 15 15 18 25 12 13 4 19 15 6 20 20 18 21 31 36 27 31 33 39 48 47 38 34 35 47 42 44 42 37 41 44 48 38 39 44
39 36 36 32 30 28 31 24 24 29 28 24 10 9 15 27 16 14 26 26 27 26 25 32 40 40 42 42 37 34 37 34 42 41 39 42 40 41 41 41 34 32 34
43 45 39 35 33 33 36 30 25 19 25 16 18 28 23 12 24 34 25 27 28 31 34 37 41 36 34 32 31 32 34 37 36 32 41 41 39 39 42 38 30 26 26
42 54 48 41 37 40 37 37 30 30 29 29 19 22 28 31 29 27 26 21 38 37 36 42 37 36 29 45 45 32 36 28 23 32 41 36 39 39 42 35 29 23 22
33 47 51 47 46 49 38 38 40 32 36 35 33 35 36 31 33 31 28 37 37 35 35 29 37 34 35 18 14 16 26 33 34 36 34 33 41 38 38 30 29 24 19
27 36 43 47 49 44 44 53 48 45 40 44 40 45 42 37 35 42 30 35 28 38 35 32 29 29 31 30 34 36 42 43 43 37 35 27 31 34 32 32 30 21 23
27 30 38 43 48 51 55 60 59 54 54 46 47 53 44 42 35 43 39 42 40 46 42 40 38 29 32 36 38 44 46 51 38 37 33 28 30 34 27 33 25 18 19
30 32 38 42 46 57 63 65 61 64 61 51 51 42 46 49 36 41 34 41 47 32 49 40 31 23 29 31 53 50 49 39 45 38 38 40 31 34 19 24 27 22 24
30 34 37 42 51 60 57 67 65 65 60 56 50 42 49 38 36 20 24 30 36 30 32 32 30 23 26 36 42 43 32 34 35 37 39 40 26 24 22 24 29 12 16
26 26 37 44 47 49 55 60 66 65 62 55 40 44 41 31 32 31 38 38 37 32 30 27 30 24 31 33 40 37 33 34 35 24 29 35 27 25 30 27 18 8 10
30 34 37 37 38 42 47 51 53 62 58 45 38 33 31 33 27 33 32 36 39 31 25 39 21 26 35 37 40 36 24 23 35 35 30 24 27 31 36 22 9 13 12
28 35 36 36 37 39 38 50 57 61 44 38 32 27 29 25 34 32 34 37 35 23 26 17 17 29 34 35 37 36 27 23 23 44 30 35 30 29 29 14 23 23 23
Wind_Direction_500mb
234 256 295 65 226 37 350 13 349 83 36 68 90 74 68 60 47 16 43 40 25 56 83 71 61 38 18 14 15 13 13 12 9 3 2 354 346 332 321 311 310 300 302
201 115 46 66 327 250 218 186 196 76 41 37 40 72 88 100 79 7 11 28 40 26 5 41 37 20 8 5 9 15 15 9 4 358 353 354 343 343 331 315 304 300 302
197 146 161 104 280 272 252 221 197 111 117 333 74 44 55 67 128 90 6 17 18 16 43 33 27 33 43 53 43 37 31 26 22 17 12 7 359 351 359 5 355 328 312
236 143 115 222 245 275 16 215 162 277 216 231 237 140 28 61 36 113 151 93 2 15 8 24 35 26 24 24 54 51 42 32 23 22 17 12 6 2 351 338 6 1 360
243 192 166 246 311 152 235 226 248 216 251 231 254 219 172 177 144 203 95 20 121 337 346 2 2 21 20 16 18 19 21 32 24 11 9 9 8 7 4 354 326 336 4
234 151 212 345 284 114 260 231 223 217 215 223 259 191 177 224 219 262 19 215 303 118 311 339 330 340 358 359 359 2 4 8 10 7 349 353 356 356 356 357 357 340 327
214 143 31 333 63 153 233 233 246 245 226 247 234 249 280 280 220 209 245 195 279 315 277 251 312 4 335 333 333 342 342 359 1 359 348 339 341 345 345 346 350 355 314
193 33 325 245 251 221 256 259 229 198 255 266 252 264 278 243 242 203 205 226 271 246 270 270 249 293 274 327 333 322 323 340 335 348 348 345 330 326 327 331 336 342 346
204 215 318 257 273 220 273 289 255 207 200 234 293 254 330 7 321 214 205 253 238 264 236 252 327 292 309 298 293 298 310 316 319 329 340 352 346 323 311 309 317 327 334
257 231 265 275 240 196 235 263 227 218 247 215 282 322 264 293 318 318 270 235 274 303 206 309 266 291 303 304 284 293 300 303 321 323 329 339 344 344 317 296 291 304 309
243 221 248 258 256 229 231 230 227 239 200 213 221 300 293 306 297 295 298 283 286 241 253 231 264 318 347 291 298 296 298 305 321 323 326 332 332 334 327 298 290 279 287
235 231 242 255 253 233 255 244 240 231 206 216 220 224 248 302 313 299 304 306 294 300 258 265 293 295 265 270 285 297 305 307 317 317 321 329 326 329 328 301 290 275 273
233 235 240 247 247 237 238 231 248 226 234 224 233 206 223 270 296 309 317 311 329 328 316 236 293 314 307 291 308 292 301 298 307 309 312 327 324 321 328 320 298 286 275
245 249 237 240 241 237 237 224 234 233 245 222 249 224 213 242 306 278 309 323 328 325 326 229 326 312 315 307 306 310 311 302 308 323 322 317 312 311 320 324 307 291 288
218 255 247 236 230 237 239 234 217 210 222 239 231 271 221 207 324 284 286 286 299 306 304 311 325 324 319 320 320 307 318 315 320 317 317 314 305 310 321 319 307 292 283
211 222 248 238 230 226 237 241 219 231 239 242 245 249 221 208 224 283 289 291 290 296 293 294 300 312 316 318 312 301 308 323 312 313 319 323 318 322 321 329 323 305 292
223 215 235 240 232 237 242 246 240 228 250 249 248 213 231 257 244 264 260 285 297 313 310 304 313 313 325 314 320 302 314 312 320 321 315 323 328 325 325 324 327 313 305
233 221 228 241 233 233 246 243 235 230 246 238 262 208 222 230 244 274 261 280 290 291 305 310 310 327 326 317 313 307 309 312 311 317 322 328 323 320 329 315 317 324 312
240 230 234 240 234 237 246 245 249 248 229 246 227 229 234 238 248 260 262 273 283 294 307 309 317 321 328 331 329 338 333 330 315 313 326 312 311 318 317 326 315 305 304
249 238 241 246 249 249 239 240 253 250 239 241 238 244 249 239 256 252 262 271 285 304 305 315 312 328 323 322 324 329 320 314 306 313 303 309 319 314 322 317 308 293 297
265 261 255 256 254 243 238 246 254 250 250 249 243 248 252 240 245 269 272 280 284 292 288 287 311 306 316 325 333 324 319 315 311 317 315 303 314 302 316 320 321 330 319
274 268 263 259 254 250 244 252 253 250 254 255 249 255 248 251 238 256 264 274 275 290 293 290 301 314 298 313 318 315 305 317 319 319 319 312 310 313 314 312 319 313 315
280 282 275 266 264 260 256 253 251 252 257 251 254 252 270 249 239 274 280 291 295 280 285 285 278 288 295 318 318 323 326 320 318 323 321 318 329 319 324 317 323 340 318
288 286 293 287 278 269 262 256 256 256 254 247 244 264 258 235 248 256 281 282 283 295 284 281 275 274 307 305 313 317 332 325 323 319 337 317 329 331 337 328 331 1 332
298 289 293 295 289 279 272 260 257 250 240 237 249 261 233 248 263 281 276 272 278 283 294 286 268 291 305 314 310 314 316 331 329 325 322 328 335 335 342 335 3 343 305
298 302 295 304 292 279 276 264 256 237 230 234 246 241 243 266 277 277 272 282 280 276 289 286 287 289 306 300 295 310 302 298 311 323 320 315 325 334 335 330 332 326 317
Wind_Speed_850mb
8 5 7 4 3 3 13 4 8 9 12 9 13 17 14 19 11 16 19 16 9 9 19 19 26 22 21 21 21 21 21 22 23 22 21 19 19 19 20 22 20 21 22
4 2 10 5 7 3 8 3 3 5 6 11 13 9 15 11 18 14 19 20 22 19 9 12 15 20 24 26 23 23 22 22 22 22 22 22 22 23 23 25 27 28 26
4 11 4 5 8 17 12 12 8 8 2 3 8 8 14 11 14 19 10 19 20 25 21 19 18 21 24 28 30 28 27 26 25 26 27 27 25 21 19 26 29 26 26
8 10 6 7 14 8 5 1 3 6 6 7 9 4 7 6 9 6 14 11 16 16 21 23 24 29 32 28 24 27 30 30 30 30 30 31 30 27 22 18 23 28 28
8 8 10 8 7 8 6 7 10 14 9 14 12 14 14 3 6 3 7 2 7 12 18 20 18 18 27 34 28 33 25 24 28 33 33 33 32 32 31 26 21 17 24
8 8 2 7 1 10 7 13 18 15 19 13 14 18 20 7 9 12 2 6 8 1 11 18 20 11 22 30 26 31 32 32 29 24 34 36 33 32 32 32 30 18 14
14 3 5 12 4 10 21 22 24 15 10 16 22 16 26 24 28 20 9 6 14 10 19 10 14 15 24 28 26 31 34 31 42 38 29 28 35 31 31 32 31 27 12
18 3 3 10 9 15 17 24 19 17 11 17 19 25 21 27 26 23 24 14 11 21 11 18 11 21 12 21 21 36 39 31 42 45 41 32 23 31 28 32 31 28 22
20 30 12 12 11 15 12 17 13 20 16 5 19 15 10 15 12 28 28 18 22 27 17 19 10 14 20 15 21 32 33 36 43 45 48 41 36 24 30 30 32 26 24
32 29 27 17 11 21 14 21 14 16 13 8 9 20 15 24 10 8 10 20 19 5 7 9 8 12 15 21 22 29 33 32 41 50 45 42 44 46 29 30 31 28 23
35 21 32 21 12 20 25 21 21 17 10 12 3 11 11 17 14 19 23 14 19 12 13 6 11 14 12 16 23 29 33 44 50 51 40 43 45 56 41 28 37 31 26
25 26 26 22 18 21 18 17 25 17 25 19 19 11 9 15 17 12 16 24 13 20 26 18 10 6 13 21 28 38 48 47 47 43 38 47 51 55 54 33 31 31 29
31 33 30 26 20 18 15 14 12 13 16 18 19 11 7 10 18 11 15 24 25 18 19 19 11 16 23 24 37 41 46 39 45 40 47 49 49 52 48 35 32 30 32
26 29 30 30 23 20 18 20 16 15 8 11 13 20 11 4 13 11 18 22 27 26 31 9 15 14 27 36 37 46 40 37 45 52 44 47 48 49 45 45 39 39 32
26 29 28 31 26 25 21 15 15 18 25 12 13 4 19 15 6 20 20 18 21 31 36 27 31 33 39 48 47 38 34 35 47 42 44 42 37 41 44 48 38 39 44
39 36 36 32 30 28 31 24 24 29 28 24 10 9 15 27 16 14 26 26 27 26 25 32 40 40 42 42 37 34 37 34 42 41 39 42 40 41 41 41 34 32 34
43 45 39 35 33 33 36 30 25 19 25 16 18 28 23 12 24 34 25 27 28 31 34 37 41 36 34 32 31 32 34 37 36 32 41 41 39 39 42 38 30 26 26
42 54 48 41 37 40 37 37 30 30 29 29 19 22 28 31 29 27 26 21 38 37 36 42 37 36 29 45 45 32 36 28 23 32 41 36 39 39 42 35 29 23 22
33 47 51 47 46 49 38 38 40 32 36 35 33 35 36 31 33 31 28 37 37 35 35 29 37 34 35 18 14 16 26 33 34 36 34 33 41 38 38 30 29 24 19
27 36 43 47 49 44 44 53 48 45 40 44 40 45 42 37 35 42 30 35 28 38 35 32 29 29 31 30 34 36 42 43 43 37 35 27 31 34 32 32 30 21 23
27 30 38 43 48 51 55 60 59 54 54 46 47 53 44 42 35 43 39 42 40 46 42 40 38 29 32 36 38 44 46 51 38 37 33 28 30 34 27 33 25 18 19
30 32 38 42 46 57 63 65 61 64 61 51 51 42 46 49 36 41 34 41 47 32 49 40 31 23 29 31 53 50 49 39 45 38 38 40 31 34 19 24 27 22 24
30 34 37 42 51 60 57 67 65 65 60 56 50 42 49 38 36 20 24 30 36 30 32 32 30 23 26 36 42 43 32 34 35 37 39 40 26 24 22 24 29 12 16
26 26 37 44 47 49 55 60 66 65 62 55 40 44 41 31 32 31 38 38 37 32 30 27 30 24 31 33 40 37 33 34 35 24 29 35 27 25 30 27 18 8 10
30 34 37 37 38 42 47 51 53 62 58 45 38 33 31 33 27 33 32 36 39 31 25 39 21 26 35 37 40 36 24 23 35 35 30 24 27 31 36 22 9 13 12
28 35 36 36 37 39 38 50 57 61 44 38 32 27 29 25 34 32 34 37 35 23 26 17 17 29 34 35 37 36 27 23 23 44 30 35 30 29 29 14 23 23 23
Wind_Direction_850mb
234 256 295 65 226 37 350 13 349 83 36 68 90 74 68 60 47 16 43 40 25 56 83 71 61 38 18 14 15 13 13 12 9 3 2 354 346 332 321 311 310 300 302
201 115 46 66 327 250 218 186 196 76 41 37 40 72 88 100 79 7 11 28 40 26 5 41 37 20 8 5 9 15 15 9 4 358 353 354 343 343 331 315 304 300 302
197 146 161 104 280 272 252 221 197 111 117 333 74 44 55 67 128 90 6 17 18 16 43 33 27 33 43 53 43 37 31 26 22 17 12 7 359 351 359 5 355 328 312
236 143 115 222 245 275 16 215 162 277 216 231 237 140 28 61 36 113 151 93 2 15 8 24 35 26 24 24 54 51 42 32 23 22 17 12 6 2 351 338 6 1 360
243 192 166 246 311 152 235 226 248 216 251 231 254 219 172 177 144 203 95 20 121 337 346 2 2 21 20 16 18 19 21 32 24 11 9 9 8 7 4 354 326 336 4
234 151 212 345 284 114 260 231 223 217 215 223 259 191 177 224 219 262 19 215 303 118 311 339 330 340 358 359 359 2 4 8 10 7 349 353 356 356 356 357 357 340 327
214 143 31 333 63 153 233 233 246 245 226 247 234 249 280 280 220 209 245 195 279 315 277 251 312 4 335 333 333 342 342 359 1 359 348 339 341 345 345 346 350 355 314
193 33 325 245 251 221 256 259 229 198 255 266 252 264 278 243 242 203 205 226 271 246 270 270 249 293 274 327 333 322 323 340 335 348 348 345 330 326 327 331 336 342 346
204 215 318 257 273 220 273 289 255 207 200 234 293 254 330 7 321 214 205 253 238 264 236 252 327 292 309 298 293 298 310 316 319 329 340 352 346 323 311 309 317 327 334
257 231 265 275 240 196 235 263 227 218 247 215 282 322 264 293 318 318 270 235 274 303 206 309 266 291 303 304 284 293 300 303 321 323 329 339 344 344 317 296 291 304 309
243 221 248 258 256 229 231 230 227 239 200 213 221 300 293 306 297 295 298 283 286 241 253 231 264 318 347 291 298 296 298 305 321 323 326 332 332 334 327 298 290 279 287
235 231 242 255 253 233 255 244 240 231 206 216 220 224 248 302 313 299 304 306 294 300 258 265 293 295 265 270 285 297 305 307 317 317 321 329 326 329 328 301 290 275 273
233 235 240 247 247 237 238 231 248 226 234 224 233 206 223 270 296 309 317 311 329 328 316 236 293 314 307 291 308 292 301 298 307 309 312 327 324 321 328 320 298 286 275
245 249 237 240 241 237 237 224 234 233 245 222 249 224 213 242 306 278 309 323 328 325 326 229 326 312 315 307 306 310 311 302 308 323 322 317 312 311 320 324 307 291 288
218 255 247 236 230 237 239 234 217 210 222 239 231 271 221 207 324 284 286 286 299 306 304 311 325 324 319 320 320 307 318 315 320 317 317 314 305 310 321 319 307 292 283
211 222 248 238 230 226 237 241 219 231 239 242 245 249 221 208 224 283 289 291 290 296 293 294 300 312 316 318 312 301 308 323 312 313 319 323 318 322 321 329 323 305 292
223 215 235 240 232 237 242 246 240 228 250 249 248 213 231 257 244 264 260 285 297 313 310 304 313 313 325 314 320 302 314 312 320 321 315 323 328 325 325 324 327 313 305
233 221 228 241 233 233 246 243 235 230 246 238 262 208 222 230 244 274 261 280 290 291 305 310 310 327 326 317 313 307 309 312 311 317 322 328 323 320 329 315 317 324 312
240 230 234 240 234 237 246 245 249 248 229 246 227 229 234 238 248 260 262 273 283 294 307 309 317 321 328 331 329 338 333 330 315 313 326 312 311 318 317 326 315 305 304
249 238 241 246 249 249 239 240 253 250 239 241 238 244 249 239 256 252 262 271 285 304 305 315 312 328 323 322 324 329 320 314 306 313 303 309 319 314 322 317 308 293 297
265 261 255 256 254 243 238 246 254 250 250 249 243 248 252 240 245 269 272 280 284 292 288 287 311 306 316 325 333 324 319 315 311 317 315 303 314 302 316 320 321 330 319
274 268 263 259 254 250 244 252 253 250 254 255 249 255 248 251 238 256 264 274 275 290 293 290 301 314 298 313 318 315 305 317 319 319 319 312 310 313 314 312 319 313 315
280 282 275 266 264 260 256 253 251 252 257 251 254 252 270 249 239 274 280 291 295 280 285 285 278 288 295 318 318 323 326 320 318 323 321 318 329 319 324 317 323 340 318
288 286 293 287 278 269 262 256 256 256 254 247 244 264 258 235 248 256 281 282 283 295 284 281 275 274 307 305 313 317 332 325 323 319 337 317 329 331 337 328 331 1 332
298 289 293 295 289 279 272 260 257 250 240 237 249 261 233 248 263 281 276 272 278 283 294 286 268 291 305 314 310 314 316 331 329 325 322 328 335 335 342 335 3 343 305
298 302 295 304 292 279 276 264 256 237 230 234 246 241 243 266 277 277 272 282 280 276 289 286 287 289 306 300 295 310 302 298 311 323 320 315 325 334 335 330 332 326 317